Location: Newark
(56.0692°N, 115.8617°E)
Time: 12:26:45
(UTC+00:00)

deb Explorer IX - Pass Details

Date: 28 May 2020
Orbit: 543 x 1102 km, 38.8° (Epoch: 06 July)

Event Time Altitude Azimuth Distance (km) Brightness Sun altitude
Rises 15:16:22 0° 241° (WSW) 3,149 ? -11.4°
Reaches altitude 10° 15:20:35 10° 208° (SSW) 2,376 ? -11.5°
Enters shadow 15:21:33 11° 197° (SSW) 2,333 ? -11.5°
